TimeEDT,TemperatureF,Dew PointF,Humidity,Sea Level PressureIn,VisibilityMPH,Wind Direction,Wind SpeedMPH,Gust SpeedMPH,PrecipitationIn,Events,Conditions,WindDirDegrees,DateUTC
12:35 AM,53.6,53.6,100,30.11,7.0,NE,9.2,-,N/A,,Overcast,50,2012-10-10 04:35:00
12:55 AM,55.4,53.6,94,30.10,7.0,NE,8.1,-,N/A,,Overcast,50,2012-10-10 04:55:00
1:15 AM,55.4,53.6,94,30.09,7.0,ENE,12.7,-,N/A,,Overcast,60,2012-10-10 05:15:00
1:35 AM,55.4,53.6,94,30.08,8.0,ENE,10.4,-,N/A,,Overcast,60,2012-10-10 05:35:00
1:55 AM,55.4,53.6,94,30.08,7.0,ENE,10.4,18.4,N/A,,Overcast,70,2012-10-10 05:55:00
2:15 AM,55.4,53.6,94,30.08,10.0,ENE,8.1,-,N/A,,Overcast,70,2012-10-10 06:15:00
2:35 AM,55.4,53.6,94,30.08,10.0,East,6.9,-,N/A,,Overcast,80,2012-10-10 06:35:00
2:55 AM,55.4,53.6,94,30.07,10.0,ENE,10.4,-,N/A,,Overcast,70,2012-10-10 06:55:00
3:15 AM,55.4,55.4,100,30.07,8.0,ENE,6.9,-,N/A,,Overcast,70,2012-10-10 07:15:00
3:35 AM,55.4,55.4,100,30.06,10.0,East,6.9,-,N/A,,Overcast,80,2012-10-10 07:35:00
3:55 AM,55.4,55.4,100,30.06,10.0,ENE,8.1,-,N/A,,Overcast,70,2012-10-10 07:55:00
4:15 AM,55.4,55.4,100,30.06,10.0,ENE,8.1,-,N/A,,Overcast,70,2012-10-10 08:15:00
4:35 AM,55.4,55.4,100,30.06,10.0,ENE,8.1,-,N/A,,Overcast,70,2012-10-10 08:35:00
4:55 AM,55.4,55.4,100,30.06,4.0,ENE,6.9,-,N/A,,Overcast,60,2012-10-10 08:55:00
5:15 AM,55.4,55.4,100,30.06,5.0,NE,6.9,-,N/A,,Overcast,40,2012-10-10 09:15:00
5:35 AM,55.4,55.4,100,30.06,10.0,NE,5.8,-,N/A,,Overcast,50,2012-10-10 09:35:00
5:55 AM,55.4,55.4,100,30.05,10.0,NE,6.9,-,N/A,,Overcast,50,2012-10-10 09:55:00
6:15 AM,55.4,55.4,100,30.04,10.0,ENE,10.4,-,N/A,,Overcast,60,2012-10-10 10:15:00
6:35 AM,55.4,55.4,100,30.03,10.0,ENE,9.2,-,N/A,,Overcast,70,2012-10-10 10:35:00
6:55 AM,55.4,55.4,100,30.03,10.0,ENE,6.9,-,N/A,,Overcast,70,2012-10-10 10:55:00
7:15 AM,55.4,55.4,100,30.03,10.0,NE,6.9,-,N/A,,Overcast,50,2012-10-10 11:15:00
7:35 AM,57.2,55.4,94,30.02,5.0,ENE,9.2,-,N/A,,Overcast,70,2012-10-10 11:35:00
7:55 AM,57.2,55.4,94,30.01,5.0,ENE,8.1,-,N/A,,Overcast,70,2012-10-10 11:55:00
8:15 AM,57.2,55.4,94,30.01,3.0,ENE,9.2,-,N/A,,Overcast,70,2012-10-10 12:15:00
8:35 AM,57.2,57.2,100,30.02,4.0,East,6.9,-,N/A,,Overcast,80,2012-10-10 12:35:00
8:55 AM,57.2,57.2,100,30.01,5.0,ENE,6.9,-,N/A,,Overcast,70,2012-10-10 12:55:00
9:15 AM,57.2,57.2,100,30.00,10.0,ENE,5.8,-,N/A,,Overcast,70,2012-10-10 13:15:00
9:35 AM,59.0,57.2,94,30.00,5.0,East,6.9,-,N/A,,Overcast,90,2012-10-10 13:35:00
9:55 AM,59.0,57.2,94,29.99,10.0,East,5.8,-,N/A,,Overcast,90,2012-10-10 13:55:00
10:15 AM,59.0,59.0,100,29.98,10.0,East,5.8,-,N/A,,Overcast,100,2012-10-10 14:15:00
10:35 AM,60.8,57.2,88,29.98,10.0,ESE,12.7,17.3,N/A,,Overcast,110,2012-10-10 14:35:00
10:55 AM,60.8,57.2,88,29.97,10.0,ESE,9.2,17.3,N/A,,Overcast,120,2012-10-10 14:55:00
11:15 AM,60.8,57.2,88,29.96,10.0,SE,15.0,20.7,N/A,,Overcast,140,2012-10-10 15:15:00
11:35 AM,62.6,59.0,88,29.95,10.0,ESE,13.8,-,N/A,,Overcast,110,2012-10-10 15:35:00
11:55 AM,64.4,59.0,83,29.94,10.0,ESE,13.8,21.9,N/A,,Overcast,120,2012-10-10 15:55:00
12:15 PM,62.6,59.0,88,29.93,10.0,SE,18.4,24.2,N/A,,Overcast,130,2012-10-10 16:15:00
12:35 PM,64.4,59.0,83,29.91,10.0,SE,18.4,21.9,N/A,,Overcast,130,2012-10-10 16:35:00
12:55 PM,62.6,59.0,88,29.90,10.0,SE,17.3,23.0,N/A,,Overcast,130,2012-10-10 16:55:00
1:15 PM,62.6,59.0,88,29.89,1.5,SE,16.1,20.7,N/A,,Mist,130,2012-10-10 17:15:00
1:35 PM,62.6,59.0,88,29.87,8.0,SE,15.0,21.9,N/A,,Mostly Cloudy,140,2012-10-10 17:35:00
1:55 PM,62.6,59.0,88,29.86,10.0,SE,16.1,21.9,N/A,,Overcast,130,2012-10-10 17:55:00
2:15 PM,62.6,59.0,88,29.85,10.0,SE,13.8,19.6,N/A,,Overcast,130,2012-10-10 18:15:00
2:35 PM,62.6,59.0,88,29.83,10.0,SE,13.8,21.9,N/A,,Overcast,140,2012-10-10 18:35:00
2:55 PM,60.8,59.0,94,29.82,3.0,SE,15.0,-,N/A,Rain,Light Rain,130,2012-10-10 18:55:00
3:15 PM,60.8,59.0,94,29.81,10.0,SE,18.4,23.0,N/A,,Overcast,130,2012-10-10 19:15:00
3:35 PM,60.8,59.0,94,29.80,10.0,SE,19.6,-,N/A,,Overcast,140,2012-10-10 19:35:00
3:55 PM,60.8,59.0,94,29.79,10.0,SE,16.1,23.0,N/A,,Overcast,130,2012-10-10 19:55:00
4:15 PM,60.8,59.0,94,29.78,10.0,SE,16.1,21.9,N/A,,Overcast,140,2012-10-10 20:15:00
4:35 PM,60.8,59.0,94,29.78,10.0,SE,13.8,21.9,N/A,,Overcast,140,2012-10-10 20:35:00
4:55 PM,60.8,59.0,94,29.77,10.0,SSE,17.3,-,N/A,,Overcast,150,2012-10-10 20:55:00
5:15 PM,62.6,59.0,88,29.76,9.0,SSE,13.8,-,N/A,,Overcast,150,2012-10-10 21:15:00
5:35 PM,62.6,60.8,94,29.75,1.0,SSE,16.1,20.7,N/A,Rain,Light Rain,160,2012-10-10 21:35:00
5:55 PM,62.6,60.8,94,29.75,2.0,SSW,10.4,21.9,N/A,,Overcast,200,2012-10-10 21:55:00
6:15 PM,62.6,60.8,94,29.74,10.0,South,8.1,-,N/A,,Overcast,180,2012-10-10 22:15:00
6:35 PM,60.8,59.0,94,29.75,10.0,SSW,10.4,-,N/A,,Mostly Cloudy,210,2012-10-10 22:35:00
6:55 PM,60.8,59.0,94,29.76,10.0,SW,11.5,-,N/A,,Scattered Clouds,220,2012-10-10 22:55:00
7:15 PM,62.6,59.0,88,29.76,10.0,SW,12.7,17.3,N/A,,Overcast,230,2012-10-10 23:15:00
7:35 PM,60.8,59.0,94,29.75,10.0,SW,11.5,-,N/A,,Mostly Cloudy,230,2012-10-10 23:35:00
7:55 PM,60.8,59.0,94,29.75,10.0,SW,11.5,-,N/A,,Partly Cloudy,230,2012-10-10 23:55:00
8:15 PM,59.0,57.2,94,29.76,10.0,WSW,12.7,-,N/A,,Scattered Clouds,240,2012-10-11 00:15:00
8:35 PM,60.8,55.4,82,29.76,10.0,WSW,13.8,-,N/A,,Mostly Cloudy,250,2012-10-11 00:35:00
8:55 PM,59.0,55.4,88,29.77,10.0,West,16.1,-,N/A,,Scattered Clouds,260,2012-10-11 00:55:00
9:15 PM,59.0,53.6,82,29.78,10.0,West,10.4,-,N/A,,Clear,260,2012-10-11 01:15:00
9:35 PM,59.0,53.6,82,29.78,10.0,West,11.5,-,N/A,,Clear,260,2012-10-11 01:35:00
9:55 PM,57.2,53.6,88,29.79,10.0,West,12.7,-,N/A,,Scattered Clouds,260,2012-10-11 01:55:00
10:15 PM,59.0,53.6,82,29.80,10.0,West,13.8,19.6,N/A,,Scattered Clouds,260,2012-10-11 02:15:00
10:35 PM,59.0,53.6,82,29.80,10.0,West,15.0,21.9,N/A,,Partly Cloudy,260,2012-10-11 02:35:00
10:55 PM,57.2,51.8,82,29.80,10.0,West,13.8,-,N/A,,Clear,270,2012-10-11 02:55:00
11:15 PM,57.2,51.8,82,29.80,10.0,West,15.0,21.9,N/A,,Clear,270,2012-10-11 03:15:00
11:35 PM,57.2,51.8,82,29.80,10.0,West,13.8,23.0,N/A,,Clear,270,2012-10-11 03:35:00
11:55 PM,57.2,50.0,77,29.80,10.0,West,13.8,18.4,N/A,,Clear,280,2012-10-11 03:55:00